TimeEDT,TemperatureF,Dew PointF,Humidity,Sea Level PressureIn,VisibilityMPH,Wind Direction,Wind SpeedMPH,Gust SpeedMPH,PrecipitationIn,Events,Conditions,WindDirDegrees,DateUTC
12:15 AM,80.6,77.0,89,29.78,10.0,SSW,8.1,-,N/A,,Clear,210,2013-06-30 04:15:00
12:35 AM,80.6,77.0,89,29.78,10.0,SSW,5.8,-,N/A,,Clear,200,2013-06-30 04:35:00
12:55 AM,80.6,77.0,89,29.79,10.0,SSW,5.8,-,N/A,,Clear,210,2013-06-30 04:55:00
1:15 AM,80.6,75.2,84,29.78,10.0,SSW,8.1,-,N/A,,Scattered Clouds,210,2013-06-30 05:15:00
1:35 AM,80.6,75.2,84,29.78,10.0,SSW,8.1,-,N/A,,Scattered Clouds,210,2013-06-30 05:35:00
1:55 AM,80.6,75.2,84,29.77,10.0,SSW,8.1,-,N/A,,Scattered Clouds,210,2013-06-30 05:55:00
2:15 AM,78.8,75.2,89,29.77,10.0,SSW,8.1,-,N/A,,Mostly Cloudy,200,2013-06-30 06:15:00
2:35 AM,78.8,75.2,89,29.76,10.0,SSW,5.8,-,N/A,,Scattered Clouds,210,2013-06-30 06:35:00
2:55 AM,78.8,75.2,89,29.77,10.0,SSW,5.8,-,N/A,,Clear,210,2013-06-30 06:55:00
3:15 AM,78.8,75.2,89,29.76,10.0,SSW,6.9,-,N/A,,Clear,210,2013-06-30 07:15:00
3:35 AM,78.8,75.2,89,29.76,10.0,SSW,6.9,-,N/A,,Clear,210,2013-06-30 07:35:00
3:55 AM,78.8,75.2,89,29.76,10.0,SSW,6.9,-,N/A,,Clear,210,2013-06-30 07:55:00
4:15 AM,78.8,75.2,89,29.77,10.0,SW,5.8,-,N/A,,Mostly Cloudy,230,2013-06-30 08:15:00
4:35 AM,78.8,75.2,89,29.76,7.0,Calm,Calm,-,N/A,,Overcast,0,2013-06-30 08:35:00
4:55 AM,77.0,75.2,94,29.77,10.0,WSW,3.5,-,N/A,,Scattered Clouds,250,2013-06-30 08:55:00
5:15 AM,77.0,75.2,94,29.76,10.0,Calm,Calm,-,N/A,,Scattered Clouds,0,2013-06-30 09:15:00
5:35 AM,77.0,75.2,94,29.76,7.0,South,3.5,-,N/A,,Scattered Clouds,180,2013-06-30 09:35:00
5:55 AM,77.0,75.2,94,29.77,10.0,SSW,4.6,-,N/A,,Mostly Cloudy,200,2013-06-30 09:55:00
6:15 AM,77.0,75.2,94,29.78,10.0,South,3.5,-,N/A,,Mostly Cloudy,190,2013-06-30 10:15:00
6:35 AM,77.0,75.2,94,29.78,10.0,South,4.6,-,N/A,,Scattered Clouds,190,2013-06-30 10:35:00
6:55 AM,77.0,75.2,94,29.79,10.0,South,6.9,-,N/A,,Mostly Cloudy,190,2013-06-30 10:55:00
7:15 AM,77.0,75.2,94,29.79,10.0,SSW,8.1,-,N/A,,Scattered Clouds,200,2013-06-30 11:15:00
7:35 AM,77.0,75.2,94,29.80,10.0,SSW,9.2,-,N/A,,Scattered Clouds,210,2013-06-30 11:35:00
7:55 AM,77.0,75.2,94,29.80,10.0,SSW,8.1,-,N/A,,Scattered Clouds,210,2013-06-30 11:55:00
8:15 AM,77.0,75.2,94,29.81,10.0,SW,8.1,-,N/A,,Scattered Clouds,220,2013-06-30 12:15:00
8:35 AM,77.0,75.2,94,29.81,10.0,SW,6.9,-,N/A,,Scattered Clouds,220,2013-06-30 12:35:00
8:55 AM,75.2,75.2,100,29.81,10.0,SSW,9.2,-,N/A,,Mostly Cloudy,200,2013-06-30 12:55:00
9:15 AM,75.2,75.2,100,29.81,10.0,SSW,4.6,-,N/A,,Scattered Clouds,210,2013-06-30 13:15:00
9:35 AM,77.0,75.2,94,29.81,10.0,SSW,9.2,-,N/A,,Clear,210,2013-06-30 13:35:00
9:55 AM,78.8,75.2,89,29.81,10.0,SSW,6.9,-,N/A,,Clear,210,2013-06-30 13:55:00
10:15 AM,80.6,75.2,84,29.80,10.0,SSW,5.8,-,N/A,,Clear,210,2013-06-30 14:15:00
10:35 AM,82.4,77.0,84,29.80,10.0,SSW,8.1,-,N/A,,Clear,210,2013-06-30 14:35:00
10:55 AM,82.4,77.0,84,29.80,10.0,SW,8.1,-,N/A,,Clear,220,2013-06-30 14:55:00
11:15 AM,84.2,75.2,74,29.80,10.0,SW,10.4,-,N/A,,Clear,220,2013-06-30 15:15:00
11:35 AM,84.2,77.0,79,29.80,10.0,SSW,5.8,-,N/A,,Clear,210,2013-06-30 15:35:00
11:55 AM,87.8,78.8,75,29.80,10.0,South,5.8,-,N/A,,Clear,180,2013-06-30 15:55:00
12:15 PM,87.8,78.8,75,29.79,10.0,South,8.1,-,N/A,,Scattered Clouds,190,2013-06-30 16:15:00
12:35 PM,87.8,77.0,70,29.79,10.0,SSW,9.2,-,N/A,,Scattered Clouds,200,2013-06-30 16:35:00
12:55 PM,87.8,78.8,75,29.79,10.0,SSW,10.4,-,N/A,,Scattered Clouds,200,2013-06-30 16:55:00
1:15 PM,87.8,78.8,75,29.78,10.0,SSW,9.2,-,N/A,,Clear,200,2013-06-30 17:15:00
1:35 PM,89.6,77.0,66,29.77,10.0,SSW,11.5,17.3,N/A,,Clear,210,2013-06-30 17:35:00
1:55 PM,87.8,77.0,70,29.78,10.0,South,11.5,18.4,N/A,,Mostly Cloudy,190,2013-06-30 17:55:00
2:15 PM,86.0,77.0,74,29.78,10.0,SSW,15.0,-,N/A,,Scattered Clouds,200,2013-06-30 18:15:00
2:35 PM,84.2,77.0,79,29.77,10.0,SSW,12.7,-,N/A,,Clear,210,2013-06-30 18:35:00
2:55 PM,86.0,77.0,74,29.76,10.0,SSW,15.0,20.7,N/A,,Clear,200,2013-06-30 18:55:00
3:15 PM,87.8,77.0,70,29.77,10.0,SSW,13.8,17.3,N/A,,Clear,200,2013-06-30 19:15:00
3:35 PM,87.8,77.0,70,29.78,10.0,SSW,10.4,-,N/A,,Scattered Clouds,200,2013-06-30 19:35:00
3:55 PM,87.8,77.0,70,29.78,10.0,SW,8.1,-,N/A,,Mostly Cloudy,220,2013-06-30 19:55:00
4:15 PM,87.8,78.8,75,29.78,10.0,SW,5.8,-,N/A,,Mostly Cloudy,220,2013-06-30 20:15:00
4:35 PM,87.8,78.8,75,29.77,10.0,SW,6.9,-,N/A,,Mostly Cloudy,230,2013-06-30 20:35:00
4:55 PM,87.8,77.0,70,29.77,10.0,SW,8.1,-,N/A,,Mostly Cloudy,230,2013-06-30 20:55:00
5:15 PM,84.2,75.2,74,29.76,10.0,Calm,Calm,-,N/A,,Mostly Cloudy,0,2013-06-30 21:15:00
5:35 PM,87.8,75.2,66,29.76,10.0,SW,10.4,-,N/A,,Scattered Clouds,220,2013-06-30 21:35:00
5:55 PM,82.4,73.4,74,29.77,10.0,North,6.9,-,N/A,,Mostly Cloudy,350,2013-06-30 21:55:00
6:15 PM,78.8,75.2,89,29.77,10.0,NNE,5.8,-,N/A,,Overcast,30,2013-06-30 22:15:00
6:35 PM,78.8,75.2,89,29.78,10.0,ENE,5.8,-,N/A,,Mostly Cloudy,70,2013-06-30 22:35:00
6:55 PM,80.6,75.2,84,29.78,10.0,East,3.5,-,N/A,,Mostly Cloudy,80,2013-06-30 22:55:00
7:15 PM,80.6,75.2,84,29.77,10.0,East,5.8,-,N/A,,Scattered Clouds,80,2013-06-30 23:15:00
7:35 PM,80.6,75.2,84,29.78,10.0,ENE,3.5,-,N/A,,Scattered Clouds,60,2013-06-30 23:35:00
7:55 PM,80.6,77.0,89,29.79,10.0,Calm,Calm,-,N/A,,Clear,0,2013-06-30 23:55:00
8:15 PM,80.6,77.0,89,29.79,10.0,Calm,Calm,-,N/A,,Scattered Clouds,0,2013-07-01 00:15:00
8:35 PM,80.6,78.8,94,29.79,10.0,Calm,Calm,-,N/A,,Scattered Clouds,0,2013-07-01 00:35:00
8:55 PM,80.6,77.0,89,29.80,10.0,SSE,3.5,-,N/A,,Scattered Clouds,150,2013-07-01 00:55:00
9:15 PM,80.6,78.8,94,29.79,10.0,Calm,Calm,-,N/A,,Mostly Cloudy,0,2013-07-01 01:15:00
9:35 PM,78.8,75.2,89,29.81,7.0,South,16.1,19.6,N/A,,Overcast,180,2013-07-01 01:35:00
9:55 PM,75.2,73.4,94,29.80,5.0,South,4.6,-,N/A,,Overcast,170,2013-07-01 01:55:00
10:15 PM,75.2,73.4,94,29.81,10.0,SSE,5.8,-,N/A,,Scattered Clouds,160,2013-07-01 02:15:00
10:35 PM,75.2,73.4,94,29.83,10.0,SSE,8.1,-,N/A,,Scattered Clouds,150,2013-07-01 02:35:00
10:55 PM,75.2,73.4,94,29.82,10.0,SSE,6.9,-,N/A,,Scattered Clouds,160,2013-07-01 02:55:00
11:15 PM,75.2,73.4,94,29.82,10.0,SSE,5.8,-,N/A,,Scattered Clouds,150,2013-07-01 03:15:00
11:35 PM,75.2,73.4,94,29.82,10.0,SSE,8.1,-,N/A,,Scattered Clouds,150,2013-07-01 03:35:00
11:55 PM,75.2,75.2,100,29.82,10.0,SSE,3.5,-,N/A,,Mostly Cloudy,160,2013-07-01 03:55:00